Вернуться в каталог

STARLINK-37354

АктивенСвязьSSO
NORAD 68743·PAYLOAD·🇺🇸 United States

Запущен Apr 15, 2026 с Vandenberg Space Force Base

Loading…

Ближайшие Пролёты (ближайшие 24 часа)

TLE

СвежийSource: CelesTrak SupGP

Эпоха: Sep 15, 2026, 03:19 UTC

1 68743C 26082R   26258.13868056  .00001112  00000+0  34498-4 0  2580
2 68743  97.2852 120.4340 0001794  96.1638  72.0247 15.33448610    19

Отслеживайте STARLINK-37354 в реальном времени с AllMySat

Download on the App Store